Regional Weather Roundup
Issued by NWS Wakefield, VA

Home | Current Version | Previous Version | Graphics & Text | Print | Product List | Glossary Off
Versions: 1 2 3 4 5 6 7 8 9 10 11 12 13 14 15 16 17 18 19 20 21 22 23 24 25 26 27 28 29 30 31 32 33 34 35 36 37 38 39 40 41 42 43 44 45 46 47 48 49 50

000
ASUS41 KAKQ 060515
RWRAKQ

REGIONAL WEATHER ROUNDUP
NATIONAL WEATHER SERVICE WAKEFIELD VA
100 AM EDT MON JUL 06 2015

Note: "fair" indicates few or no clouds below 12,000 feet with no
significant weather and/or obstructions to visibility. * = Denotes
station may not report precipitation (e.g., rain,snow,etc.),
thunder or fog.

VAZ042-051-052>054-056-060600-
NORTHERN VIRGINIA

CITY           SKY/WX    TMP DP  RH WIND       PRES   REMARKS
WASH NATIONAL  CLOUDY    77  72  84 S3        30.12F
DULLES         CLOUDY    73  72  94 CALM      30.12F
FORT BELVOIR   CLOUDY    72  70  95 CALM      30.12R FOG
QUANTICO       CLOUDY    76  71  85 S7        30.12F
FREDERICKSBRG* CLOUDY    75  75 100 CALM      30.10F
STAFFORD*      CLOUDY    71  70  96 CALM      30.15F FOG
WARRENTON      CLOUDY    73  73 100 CALM      30.12F FOG
CULPEPER*      LGT RAIN  70  70 100 CALM      30.12F
MANASSAS*      CLOUDY    73  73 100 CALM        N/A
LEESBURG*      DRIZZLE   73  73 100 S8        30.13S
WINCHESTER     RAIN      72  70  94 CALM      30.13R
FRONT ROYAL*   FAIR      70  68  94 CALM      30.11S
LURAY*         RAIN      72  72 100 CALM      30.12F
$$

VAZ048-049-060>072-079>083-060600-
CENTRAL AND SOUTH CENTRAL VIRGINIA

CITY           SKY/WX    TMP DP  RH WIND       PRES   REMARKS
RICHMOND       CLOUDY    73  71  93 CALM      30.12R
CHESTERFIELD*  NOT AVBL
PETERSBURG*    LGT RAIN  72  72 100 S3        30.13S
HANOVER        CLOUDY    73  72  96 CALM      30.12S
TAPPAHANNOCK*  MOCLDY    74  71  91 CALM      30.12S FOG
QUINTON*       NOT AVBL
CHARLOTTSVILLE CLOUDY    72  70  93 S8        30.12S
GORDONSVILLE*  MOCLDY    70  70 100 CALM      30.11F FOG
ORANGE*        CLOUDY    72  72 100 CALM      30.13F FOG
LOUISA*        CLOUDY    72  70  94 CALM      30.11S FOG
BUMPASS*       MOCLDY    71  70  98 SE3       30.11F
FARMVILLE*     CLOUDY    71  71 100 CALM      30.09F
CREWE*         MOCLDY    70  69  96 CALM      30.11F
FORT PICKETT*    N/A     70  69  98 E6        30.12S
CHASE CITY*    MOCLDY    72  72 100 CALM      30.10F
CLARKSVILLE*   CLOUDY    70  70 100 CALM      30.10R
SOUTH HILL*    CLOUDY    69  68  99 CALM      30.16F
LAWRENCEVILLE* NOT AVBL
EMPORIA*       FLURRIES  70  70 100 E5        30.14F
$$

VAZ088>098-060600-
SOUTHEAST VIRGINIA

CITY           SKY/WX    TMP DP  RH WIND       PRES   REMARKS
NORFOLK        CLOUDY    73  70  90 CALM      30.12S
VIRGINIA BEACH CLOUDY    74  70  87 CALM      30.11F
NORFOLK NAVAL  TSTM      71  69  93 CALM      30.12F FOG
WEST POINT*    CLOUDY    76  73  90 CALM      30.12S
SALUDA*        FAIR      74  73  96 SE6       30.10F
NEWPORT NEWS   CLOUDY    73  71  93 SE3       30.11F
LANGLEY AFB    CLOUDY    73  70  88 SE6       30.09F
FORT EUSTIS    CLOUDY    73 N/A N/A SE2       30.09S
WILLIAMSBURG*  CLOUDY    75  75 100 SE7       30.12R
HR EXEC AP*    FAIR      72  68  88 CALM      30.12F
FRANKLIN*      TSTM      72  71  96 W5        30.16R
WAKEFIELD      HVY RAIN  73  71  93 CALM      30.13F FOG
$$

VAZ020-022-025-037-045-060600-
WEST CENTRAL AND SOUTHWEST VIRGINIA

CITY           SKY/WX    TMP DP  RH WIND       PRES   REMARKS
STAUNTON*      CLOUDY    73  71  94 CALM      30.14F FOG
WAYNESBORO*    MOCLDY    69  69  98 SE3       30.14S
HOT SPRINGS VA FOG       64  64 100 E7        30.20F VSB<1/4
LYNCHBURG      MOCLDY    70  69  97 SE5       30.11F
DANVILLE       MOCLDY    70  68  93 CALM      30.09F
SOUTH BOSTON*  CLOUDY    70  69  95 MISG      30.09S
MARTINSVILLE   CLOUDY    70  70 100 CALM      30.11F
ROANOKE        CLOUDY    70  69  97 CALM      30.12F
BLACKSBURG     HVY RAIN  68  68 100 NW8       30.15F VSB 3/4
DUBLIN*        CLOUDY    67  67 100 CALM      30.13F
MARION*        CLOUDY    66  65  96 CALM      30.16F FOG
HILLSVILLE*    PTCLDY    66  65  98 S3        30.13F
RICHLANDS*     CLOUDY    65  65 100 CALM      30.13S
WISE*          CLOUDY    66  66 100 CALM      30.14F
ABINGDON*      RAIN      69  69 100 SW8       30.12S
$$

MDZ021>025-VAZ099-100-060600-
SOUTHERN MARYLAND AND THE DELMARVA PENINSULA

CITY           SKY/WX    TMP DP  RH WIND       PRES   REMARKS
PATUXENT RIVER CLOUDY    75  71  87 S6        30.11F
BAY BRIDGE APT   N/A     75  72  88 SE6       30.12S
LEONARDTOWN    CLOUDY    73  70  88 CALM      30.14S
DOVER          CLOUDY    72  72 100 SE3       30.12F
GEORGETOWN     CLOUDY    72  70  93 CALM      30.14F
EASTON         CLOUDY   N/A N/A N/A CALM      30.16S
CAMBRIDGE      CLOUDY    73  70  88 SE5       30.12F
SALISBURY      CLOUDY    71  70  96 SE3       30.13F
OCEAN CITY     CLOUDY    74  71  91 SE3       30.13F
WALLOPS ISLAND LGT RAIN  75  74  96 E8        30.12F
ACCOMACK*      TSTM      70  70 100 S5        30.11F
$$

NCZ012>017-030>032-060600-
NORTH CENTRAL AND EASTERN NORTH CAROLINA

CITY           SKY/WX    TMP DP  RH WIND       PRES   REMARKS
ROANOKE RAPIDS FAIR      68  68 100 CALM      30.12S
RALEIGH        MOCLDY    71  69  93 CALM      30.10S
ELIZABETH CITY FOG       76  72  87 NW6       30.12S VSB 1/2
AHOSKIE*       CLOUDY   N/A N/A N/A CALM      30.13F
EDENTON*       CLOUDY    78  73  84 CALM      30.12R
CURRITUCK*     CLOUDY    76  74  92 NW3       30.12F
KILL DEVIL HLS CLOUDY    78  73  84 SW6       30.10F
MANTEO         CLOUDY    78  74  86 SW10      30.12S
CAPE HATTERAS  PTCLDY    77  74  90 SW9       30.13F
TARBORO*         N/A     73  70  90 CALM      30.13S
GOLDSBORO      PTCLDY    77  73  88 SE3       30.09S
WASHINGTON     CLOUDY    77  73  87 SW6       30.12R
GREENVILLE     CLOUDY    79  73  83 CALM      30.13R
NEW BERN       MOCLDY    77  74  90 S5        30.13S
WILMINGTON     CLEAR     78  74  87 SW8       30.11S
$$

VAZ048-060600-
ELSEWHERE

CITY           SKY/WX    TMP DP  RH WIND       PRES   REMARKS
HARRISBURG PA  CLOUDY    70  67  90 CALM      30.13S
BALTIMORE      CLOUDY    74  70  87 CALM      30.12F
ANNAPOLIS      CLOUDY    77  72  84 SE7       30.11F
ANDREWS AFB    CLOUDY    73  73  99 SE3       30.12F
PHILADELPHIA   CLOUDY    73  67  81 S6        30.15F
HENDERSON NC   MOCLDY    70  68  93 SE3       30.11S FOG
GREENSBORO     MOCLDY    71  69  93 S9        30.08F
ROCKY MOUNT    CLOUDY    71  70  96 CALM      30.11F
$$

VAZ100-060600-
MARINE

STATION/POSITION TIME  TEMP    WIND        PRES    WAVE   SWELL
                       AIR SEA DIR/SP/G            HT/PER HT/PER
                 (UTC) (F)     (DEG/KT/KT) (MB)    (FT/S) (FT/S)
BRANDYWINE LGT   0400   73 73  170/ 10/ 10 1021.0F
CAPE MAY NJ      0400   73 79  140/  4/  6 1020.6F
LEWES DE         0400   74 74  170/  5/  7 1020.7F
15NM E FENWICK I 0450   74 74              1020.1F   4/ 6
OCEAN-CITY-INLET 0400   75 75  130/  3/  5 1020.2F
WACHAPREAGUE VA  0400   74 81  190/ 15/ 22 1020.8R
GOOSES REEF MD   0500   77 78  150/ 10/ 12 1020.8F
COVE POINT MD    0400   76     180/ 12/ 13 1020.6F
SOLOMONS ISLAND  0400      81                N/A
BISHOPS HEAD MD  0400   76     130/  9/ 10 1020.2F
PINEY POINT MD   0400          160/ 12/ 14   N/A
CAMBRIDGE MD     0400   75 79  130/  3/  5 1020.0F
LEWISETTA VA     0400   75 81  160/  6/  7 1019.7F
RAPPAHANNOCK LGT 0400          130/ 16/ 18 1020.7F
STINGRAY PT      0500   77 80  140/  8/ 10 1019.4F   1/ 2
YORK RVR RNG VA  0400   75     130/  9/ 10 1019.3F
YORKTOWN VA      0400   75 80  160/  4/  5 1019.6F
JAMESTOWN VA     0500   76 82  190/ 12/ 16   N/A
DOMINION TERM VA 0400   73        CALM     1019.9F
KIPTOPEKE VA     0400      83   80/  3/  3   N/A
CHES BAY BRIDGE  0400   74 77   40/  4/  5 1019.4F
CAPE HENRY VA    0400   74      10/  7/  8   N/A
CHESAPEAKE LGHT  0400   72     340/ 18/ 19 1020.7F
WILLOUBY STN VA  0400   75      20/  2/  3 1021.0F
CAPE HENRY BUOY  0428      78                N/A     2/ 9
1ST LANDING BUOY 0500      78              1019.3F   1/ 3
CAPE CHARLES BUO 0426      76                N/A     2/14   2/14
OFFSHORE WE BUOY 0411      77                N/A     2/10   2/10
64NM E OF VA BCH 0450   78 77  180/  8/ 10 1019.6F   3/ 9   2/ 9
DUCK PIER NC     0400   80 77  220/ 14/ 15   N/A
44100 DUCK FRF   0424      79                N/A     3/14
44056 DUCK FRF   0411      78                N/A     2/13
OREGON INLET NC  0400   81 83  210/ 14/ 17 1019.8F
HATTERAS NC      0400   79 81  210/  8/ 12 1020.2F
DIAMOND SHLS NC  0450   81 81  220/ 16/ 17 1019.8F   3/ 8   2/ 8
CAPE LOOKOUT NC  0500   79     210/  8/ 10 1019.8F
$$


USA.gov is the U.S. government's official web portal to all federal, state and local government web resources and services.